This is the latest recevied weather packets stored in our database for station/object KI6AOK. If no packets are shown the sender has not sent any weather packets the latest 10 day(s).
| Time | Temp. | Humidity | Pressure | Rain* | Wind** | Luminosity | Snow |
|---|---|---|---|---|---|---|---|
| 1777052087 | 21.67° C | 49% | 1013.9 hPa | 0 mm | - | 738 W/m² | - |
| 1777051784 | 21.11° C | 51% | 1013.9 hPa | 0 mm | - | 728 W/m² | - |
| 1777051480 | 20.56° C | 52% | 1013.8 hPa | 0 mm | - | 719 W/m² | - |
| 1777051176 | 21.11° C | 52% | 1013.9 hPa | 0 mm | - | 703 W/m² | - |
| 1777050872 | 21.11° C | 52% | 1013.9 hPa | 0 mm | - | 690 W/m² | - |
| 1777050567 | 21.11° C | 52% | 1014 hPa | 0 mm | - | 678 W/m² | - |
| 1777050267 | 20.56° C | 52% | 1014.2 hPa | 0 mm | - | 665 W/m² | - |
| 1777049962 | 20.56° C | 51% | 1014.1 hPa | 0 mm | - | 654 W/m² | - |
| 1777049662 | 20.56° C | 50% | 1013.9 hPa | 0 mm | - | 640 W/m² | - |
| 1777049360 | 20° C | 52% | 1014 hPa | 0 mm | - | 632 W/m² | - |
| 1777049056 | 19.44° C | 53% | 1014 hPa | 0 mm | - | 617 W/m² | - |
| 1777048752 | 19.44° C | 54% | 1013.9 hPa | 0 mm | - | 604 W/m² | - |
| 1777048452 | 19.44° C | 55% | 1013.6 hPa | 0 mm | - | 588 W/m² | - |
| 1777048152 | 18.89° C | 55% | 1013.6 hPa | 0 mm | - | 571 W/m² | - |
| 1777047848 | 18.89° C | 56% | 1013.7 hPa | 0 mm | - | 561 W/m² | - |
| 1777047544 | 18.33° C | 56% | 1013.7 hPa | 0 mm | - | 542 W/m² | - |
| 1777047239 | 18.89° C | 56% | 1013.6 hPa | 0 mm | - | 526 W/m² | - |
| 1777046936 | 17.78° C | 59% | 1013.7 hPa | 0 mm | - | 508 W/m² | - |
| 1777046632 | 17.78° C | 62% | 1013.8 hPa | 0 mm | - | 492 W/m² | - |
| 1777046327 | 17.78° C | 61% | 1013.6 hPa | 0 mm | - | 470 W/m² | - |
| 1777046023 | 17.78° C | 63% | 1013.9 hPa | 0 mm | - | 456 W/m² | - |
| 1777045720 | 17.22° C | 64% | 1013.9 hPa | 0 mm | - | 432 W/m² | - |
| 1777045416 | 16.67° C | 66% | 1013.8 hPa | 0 mm | - | 413 W/m² | - |
| 1777045112 | 16.67° C | 66% | 1013.9 hPa | 0 mm | - | 393 W/m² | - |
| 1777044807 | 16.67° C | 66% | 1013.9 hPa | 0 mm | - | 348 W/m² | - |
* Rain latest hour (hover to see other rain measurements)
** Current wind speed in m/s (hover to see current wind gust speed)